Douglas Lake Weather Center

Moon Phase Calendar



Douglas Lake Water Level
Online Cameras

 


      

Current Conditions in Dandridge
5/26/2022 11:06:54 PM

66°F
Feels Like 67
Rain
Humidity
92%
Pressure
29.91"
Wind
1.3 mph (N)
Dew Point
64°F
UV Index
0/10 (Low)
Visibility
6 mi

Hourly Forecast

Date & Time Thu, May 26
11:00 PM
Fri, May 27
12:00 AM
Fri, May 27
1:00 AM
Fri, May 27
2:00 AM
Fri, May 27
3:00 AM
Fri, May 27
4:00 AM
Fri, May 27
5:00 AM
Fri, May 27
6:00 AM
Fri, May 27
7:00 AM
Fri, May 27
8:00 AM
Fri, May 27
9:00 AM
Fri, May 27
10:00 AM
Fri, May 27
11:00 AM
Fri, May 27
12:00 PM
Fri, May 27
1:00 PM
Fri, May 27
2:00 PM
Fri, May 27
3:00 PM
Fri, May 27
4:00 PM
Fri, May 27
5:00 PM
Fri, May 27
6:00 PM
Fri, May 27
7:00 PM
Fri, May 27
8:00 PM
Fri, May 27
9:00 PM
Fri, May 27
10:00 PM
Fri, May 27
11:00 PM
Sat, May 28
12:00 AM
Sat, May 28
1:00 AM
Sat, May 28
2:00 AM
Sat, May 28
3:00 AM
Sat, May 28
4:00 AM
Sat, May 28
5:00 AM
Sat, May 28
6:00 AM
Sat, May 28
7:00 AM
Sat, May 28
8:00 AM
Sat, May 28
9:00 AM
Sat, May 28
10:00 AM
Sat, May 28
11:00 AM
Sat, May 28
12:00 PM
Sat, May 28
1:00 PM
Sat, May 28
2:00 PM
Sat, May 28
3:00 PM
Sat, May 28
4:00 PM
Sat, May 28
5:00 PM
Sat, May 28
6:00 PM
Sat, May 28
7:00 PM
Sat, May 28
8:00 PM
Sat, May 28
9:00 PM
Sat, May 28
10:00 PM
Condition
Rain

Rain

Clouds

Rain

Rain

Rain

Clouds

Clouds

Clouds

Clouds

Clouds

Rain

Rain

Rain

Clouds

Clouds

Clouds

Clouds

Clouds

Clouds

Rain

Rain

Rain

Clouds

Clouds

Clouds

Clouds

Clouds

Clouds

Clouds

Clouds

Clouds

Clouds

Clouds

Clouds

Clouds

Clouds

Clouds

Clouds

Clouds

Clear

Clear

Clear

Clear

Clear

Clear

Clear

Clear
Temperature 66°F66°F65°F63°F62°F60°F59°F59°F59°F63°F66°F68°F74°F75°F74°F76°F75°F74°F72°F69°F67°F64°F61°F59°F58°F57°F57°F56°F57°F58°F58°F58°F57°F59°F60°F61°F62°F64°F67°F73°F74°F75°F75°F74°F72°F68°F63°F61°F
Feels Like 67°F66°F65°F64°F62°F60°F60°F59°F59°F63°F67°F68°F73°F74°F73°F75°F74°F74°F72°F68°F67°F64°F61°F59°F58°F57°F57°F56°F57°F58°F58°F58°F57°F59°F60°F61°F62°F63°F67°F73°F74°F75°F75°F74°F72°F68°F63°F61°F
Cloudiness 100%100%100%100%100%100%71%54%43%36%43%66%46%44%49%49%56%49%42%56%47%51%14%17%14%11%11%11%57%76%82%82%80%80%100%100%100%100%100%86%10%6%4%3%3%2%0%0%
Visibility 6 mi6 mi6 mi6 mi6 mi6 mi6 mi6 mi6 mi6 mi6 mi6 mi6 mi6 mi6 mi6 mi6 mi6 mi6 mi6 mi6 mi6 mi6 mi6 mi6 mi6 mi6 mi6 mi6 mi6 mi6 mi6 mi6 mi6 mi6 mi6 mi6 mi6 mi6 mi6 mi6 mi6 mi6 mi6 mi6 mi6 mi6 mi6 mi
Precipitation 100%100%80%100%46%41%29%19%13%9%39%46%50%54%50%50%13%18%18%29%35%43%38%38%26%6%5%0%0%0%0%0%0%0%4%0%0%0%0%0%0%0%0%0%0%0%0%0%
Humidity 92%94%95%97%97%97%97%96%95%93%83%79%56%53%56%51%52%51%53%62%73%82%90%95%96%96%96%96%96%96%96%97%98%94%92%90%85%79%70%59%55%55%56%60%68%80%88%91%
Dew Point 64°F64°F63°F62°F61°F58°F58°F57°F57°F60°F60°F60°F56°F55°F56°F56°F55°F54°F54°F55°F58°F58°F57°F57°F56°F55°F55°F54°F55°F56°F56°F56°F56°F57°F57°F57°F57°F56°F56°F57°F57°F57°F58°F58°F60°F61°F59°F58°F
Pressure 29.91"29.91"29.91"29.91"29.88"29.88"29.85"29.85"29.85"29.85"29.85"29.83"29.83"29.8"29.8"29.8"29.8"29.83"29.83"29.83"29.85"29.85"29.88"29.91"29.91"29.91"29.91"29.91"29.91"29.91"29.91"29.94"29.97"29.97"30"30"30"30"29.97"29.94"29.94"29.91"29.91"29.91"29.91"29.94"29.97"29.97"
Wind Speed 1.3 mph3 mph4 mph2.7 mph3.2 mph3.1 mph4 mph4.5 mph4.9 mph3.7 mph3.9 mph5.1 mph10 mph15.7 mph16.7 mph17 mph16.8 mph15.2 mph13.7 mph10.8 mph11.7 mph8.1 mph6.8 mph5.3 mph4.4 mph4 mph3.8 mph3.6 mph3.7 mph3.4 mph3.1 mph3.2 mph2.6 mph2.8 mph2.4 mph2 mph0.8 mph0.7 mph0.5 mph2.2 mph4.1 mph5 mph5.4 mph6 mph4.2 mph2.9 mph3.7 mph3.4 mph
Wind
Direction
349°
N
294°
WNW
277°
W
244°
WSW
162°
SSE
144°
SE
136°
SE
135°
SE
137°
SE
154°
SSE
195°
SSW
233°
SW
246°
WSW
261°
W
266°
W
269°
W
260°
W
259°
W
256°
WSW
253°
WSW
258°
WSW
246°
WSW
239°
WSW
234°
SW
224°
SW
211°
SSW
229°
SW
236°
SW
243°
WSW
252°
WSW
263°
W
270°
W
273°
W
272°
W
262°
W
234°
SW
222°
SW
226°
SW
173°
S
25°
NNE

N
359°
N
351°
N
359°
N
17°
NNE
65°
ENE
114°
ESE
127°
SE

Daily Forecast

Date High Low Precip. Humidity
Today
May 26

Rain
75 °F
64 °F
100%
94%
Friday
May 27

Rain
76 °F
58 °F
100%
56%
Saturday
May 28

Clouds
75 °F
56 °F
6%
70%
Sunday
May 29

Clear
84 °F
57 °F
0%
46%
Monday
May 30

Clouds
86 °F
62 °F
0%
45%
Tuesday
May 31

Clear
88 °F
64 °F
6%
42%
Wednesday
Jun 1

Clear
88 °F
65 °F
22%
45%
Thursday
Jun 2

Rain
89 °F
66 °F
100%
45%
Friday
Jun 3

Rain
81 °F
65 °F
93%
63%
Saturday
Jun 4

Rain
86 °F
58 °F
32%
51%
Sunday
Jun 5

Clouds
89 °F
63 °F
27%
45%
Monday
Jun 6

Rain
89 °F
64 °F
86%
47%
Tuesday
Jun 7

Rain
90 °F
66 °F
100%
49%
Wednesday
Jun 8

Rain
85 °F
63 °F
100%
50%
Thursday
Jun 9

Rain
83 °F
63 °F
63%
52%
Friday
Jun 10

Clear
88 °F
63 °F
0%
45%

Temperature 8-14 Day Outlook



Precipitation 8-14 Day Outlook




Quick Links
Douglas Lake News
Douglas Lake Photos
Douglas Lake Videos




About Us
Contact Us
Site Map
Search Site
Advertise With Us
   
www.DouglasLake.info
THE DOUGLAS LAKE WEBSITE

Copyright 2022, Lakes Online
Privacy    |    Legal